Hourly Weather Honcharivs'ke

Today, 11 May, Tuesday

Time Temperature Precipitation Wind Pressure Humidity
00:00 +7°C° 0 mm 2 mps 754 mmHg 76%
01:00 +7°C° 0 mm 3 mps 754 mmHg 77%
02:00 +5°C° 0 mm 3 mps 754 mmHg 78%
03:00 +5°C° 0 mm 3 mps 754 mmHg 78%
04:00 +5°C° 0 mm 3 mps 754 mmHg 78%
05:00 +5°C° 0 mm 3 mps 754 mmHg 77%
06:00 +8°C° 0 mm 3 mps 754 mmHg 72%
07:00 +10°C° 0 mm 4 mps 754 mmHg 66%
08:00 +12°C° 0 mm 4 mps 754 mmHg 59%
09:00 +14°C° 0 mm 4 mps 753 mmHg 56%
10:00 +17°C° 0 mm 4 mps 753 mmHg 53%
11:00 +18°C° 0 mm 4 mps 752 mmHg 51%
12:00 +19°C° 0 mm 5 mps 752 mmHg 51%
13:00 +20°C° 0 mm 5 mps 752 mmHg 51%
14:00 +21°C° 0 mm 5 mps 751 mmHg 51%
15:00 +21°C° 0 mm 5 mps 751 mmHg 54%
16:00 +21°C° 0 mm 4 mps 751 mmHg 58%
17:00 +21°C° 0 mm 4 mps 751 mmHg 62%
18:00 +19°C° 0 mm 4 mps 751 mmHg 71%
19:00 +17°C° 0 mm 4 mps 751 mmHg 80%
20:00 +14°C° 0 mm 3 mps 751 mmHg 89%
21:00 +13°C° 0 mm 4 mps 751 mmHg 90%
22:00 +12°C° 0 mm 4 mps 751 mmHg 91%
23:00 +11°C° 0 mm 4 mps 751 mmHg 92%

Tomorrow, 12 May, Wednesday

Time Temperature Precipitation Wind Pressure Humidity
00:00 +10°C° 0 mm 4 mps 751 mmHg 93%
01:00 +8°C° 0 mm 4 mps 751 mmHg 93%
02:00 +7°C° 0 mm 4 mps 751 mmHg 93%
03:00 +6°C° 0 mm 4 mps 751 mmHg 93%
04:00 +6°C° 0 mm 4 mps 751 mmHg 92%
05:00 +5°C° 0 mm 4 mps 751 mmHg 91%
06:00 +6°C° 0 mm 5 mps 751 mmHg 86%
07:00 +7°C° 0 mm 5 mps 752 mmHg 80%
08:00 +9°C° 0 mm 6 mps 752 mmHg 74%
09:00 +10°C° 0 mm 6 mps 751 mmHg 70%
10:00 +11°C° 0 mm 6 mps 751 mmHg 67%
11:00 +11°C° 0 mm 6 mps 751 mmHg 63%
12:00 +13°C° 0.1 mm 6 mps 750 mmHg 63%
13:00 +13°C° 0.1 mm 6 mps 750 mmHg 62%
14:00 +14°C° 0.1 mm 6 mps 749 mmHg 62%
15:00 +14°C° 0.3 mm 5 mps 749 mmHg 65%
16:00 +13°C° 0.3 mm 5 mps 749 mmHg 68%
17:00 +13°C° 0.3 mm 4 mps 748 mmHg 71%
18:00 +12°C° 0.1 mm 4 mps 748 mmHg 77%
19:00 +10°C° 0.1 mm 3 mps 748 mmHg 83%
20:00 +9°C° 0.1 mm 2 mps 747 mmHg 89%
21:00 +9°C° 0 mm 2 mps 747 mmHg 90%
22:00 +8°C° 0 mm 2 mps 746 mmHg 90%
23:00 +9°C° 0 mm 1 mps 746 mmHg 91%

Day after tomorrow, 13 May, Thursday

Time Temperature Precipitation Wind Pressure Humidity
00:00 +9°C° 0.1 mm 1 mps 746 mmHg 92%
01:00 +9°C° 0.1 mm 1 mps 746 mmHg 93%
02:00 +9°C° 0.1 mm 1 mps 745 mmHg 94%
03:00 +7°C° 0 mm 2 mps 745 mmHg 94%
04:00 +7°C° 0 mm 2 mps 745 mmHg 95%
05:00 +7°C° 0 mm 2 mps 745 mmHg 95%
06:00 +8°C° 0 mm 2 mps 745 mmHg 91%
07:00 +9°C° 0 mm 3 mps 745 mmHg 87%
08:00 +10°C° 0 mm 3 mps 745 mmHg 83%
09:00 +11°C° 0.1 mm 3 mps 745 mmHg 77%
10:00 +12°C° 0.1 mm 4 mps 745 mmHg 70%
11:00 +13°C° 0.1 mm 4 mps 745 mmHg 63%
12:00 +14°C° 0 mm 4 mps 745 mmHg 61%
13:00 +14°C° 0 mm 4 mps 745 mmHg 60%
14:00 +14°C° 0 mm 4 mps 745 mmHg 58%
15:00 +15°C° 0 mm 4 mps 745 mmHg 59%
16:00 +15°C° 0 mm 4 mps 745 mmHg 61%
17:00 +15°C° 0 mm 4 mps 745 mmHg 62%
18:00 +13°C° 0 mm 4 mps 745 mmHg 67%
19:00 +12°C° 0 mm 3 mps 745 mmHg 71%
20:00 +11°C° 0 mm 3 mps 745 mmHg 76%
21:00 +11°C° 0 mm 3 mps 745 mmHg 76%
22:00 +11°C° 0 mm 4 mps 745 mmHg 76%
23:00 +12°C° 0 mm 4 mps 744 mmHg 77%

14 May, Friday

Time Temperature Precipitation Wind Pressure Humidity
00:00 +11°C° 0.5 mm 4 mps 744 mmHg 82%
01:00 +11°C° 0.5 mm 4 mps 744 mmHg 88%
02:00 +10°C° 0.5 mm 5 mps 744 mmHg 93%
03:00 +11°C° 0.3 mm 4 mps 744 mmHg 94%
04:00 +10°C° 0.3 mm 4 mps 743 mmHg 94%
05:00 +10°C° 0.3 mm 4 mps 743 mmHg 94%
06:00 +12°C° 0 mm 4 mps 743 mmHg 91%
07:00 +13°C° 0 mm 4 mps 743 mmHg 87%
08:00 +14°C° 0 mm 4 mps 743 mmHg 84%
09:00 +17°C° 0.1 mm 4 mps 743 mmHg 78%
10:00 +18°C° 0.1 mm 4 mps 743 mmHg 72%
11:00 +20°C° 0.1 mm 5 mps 743 mmHg 66%
12:00 +20°C° 0.1 mm 5 mps 743 mmHg 64%
13:00 +20°C° 0.1 mm 5 mps 743 mmHg 61%
14:00 +21°C° 0.1 mm 5 mps 742 mmHg 58%
15:00 +20°C° 0.1 mm 5 mps 742 mmHg 61%
16:00 +20°C° 0.1 mm 4 mps 742 mmHg 64%
17:00 +20°C° 0.1 mm 4 mps 742 mmHg 67%
18:00 +18°C° 0.4 mm 4 mps 742 mmHg 74%
19:00 +16°C° 0.4 mm 3 mps 742 mmHg 82%
20:00 +14°C° 0.4 mm 2 mps 742 mmHg 89%
21:00 +14°C° 0 mm 2 mps 742 mmHg 90%
22:00 +13°C° 0 mm 2 mps 742 mmHg 92%
23:00 +13°C° 0 mm 2 mps 742 mmHg 93%

15 May, Saturday

Time Temperature Precipitation Wind Pressure Humidity
00:00 +12°C° 0 mm 2 mps 742 mmHg 93%
01:00 +12°C° 0 mm 2 mps 742 mmHg 93%
02:00 +12°C° 0 mm 2 mps 743 mmHg 93%
03:00 +12°C° 0.1 mm 2 mps 743 mmHg 93%
04:00 +12°C° 0.1 mm 2 mps 743 mmHg 93%
05:00 +12°C° 0.1 mm 2 mps 743 mmHg 92%
06:00 +13°C° 0.6 mm 2 mps 744 mmHg 90%
07:00 +13°C° 0.6 mm 2 mps 744 mmHg 87%
08:00 +14°C° 0.6 mm 2 mps 744 mmHg 85%
09:00 +16°C° 0 mm 3 mps 744 mmHg 74%
10:00 +18°C° 0 mm 4 mps 744 mmHg 64%
11:00 +19°C° 0 mm 4 mps 745 mmHg 53%
12:00 +19°C° 0 mm 5 mps 745 mmHg 55%
13:00 +19°C° 0 mm 5 mps 745 mmHg 56%
14:00 +19°C° 0 mm 6 mps 745 mmHg 57%
15:00 +19°C° 0 mm 5 mps 745 mmHg 59%
16:00 +17°C° 0 mm 5 mps 745 mmHg 62%
17:00 +18°C° 0 mm 4 mps 745 mmHg 64%
18:00 +17°C° 0.1 mm 3 mps 745 mmHg 71%
19:00 +14°C° 0.1 mm 3 mps 745 mmHg 78%
20:00 +14°C° 0.1 mm 2 mps 745 mmHg 84%
21:00 +13°C° 0 mm 2 mps 745 mmHg 86%
22:00 +13°C° 0 mm 2 mps 745 mmHg 88%
23:00 +12°C° 0 mm 2 mps 745 mmHg 90%

16 May, Sunday

Time Temperature Precipitation Wind Pressure Humidity
00:00 +12°C° 0 mm 2 mps 746 mmHg 90%
01:00 +10°C° 0 mm 2 mps 746 mmHg 91%
02:00 +10°C° 0 mm 2 mps 746 mmHg 91%
03:00 +11°C° 0 mm 1 mps 746 mmHg 91%
04:00 +11°C° 0 mm 1 mps 746 mmHg 90%
05:00 +10°C° 0 mm 0 mps 746 mmHg 90%
06:00 +12°C° 0 mm 0 mps 746 mmHg 83%
07:00 +14°C° 0 mm 0 mps 746 mmHg 77%
08:00 +16°C° 0 mm 0 mps 747 mmHg 70%
09:00 +19°C° 0 mm 1 mps 747 mmHg 66%
10:00 +19°C° 0 mm 2 mps 747 mmHg 62%
11:00 +21°C° 0 mm 2 mps 747 mmHg 59%
12:00 +21°C° 0.1 mm 2 mps 746 mmHg 58%
13:00 +22°C° 0.1 mm 3 mps 746 mmHg 58%
14:00 +22°C° 0.1 mm 3 mps 746 mmHg 57%
15:00 +22°C° 0.2 mm 3 mps 746 mmHg 62%
16:00 +22°C° 0.2 mm 3 mps 745 mmHg 66%
17:00 +21°C° 0.2 mm 3 mps 745 mmHg 70%
18:00 +20°C° 0.1 mm 2 mps 745 mmHg 74%
19:00 +18°C° 0.1 mm 2 mps 745 mmHg 79%
20:00 +17°C° 0.1 mm 2 mps 745 mmHg 83%
21:00 +17°C° 0 mm 2 mps 745 mmHg 85%
22:00 +16°C° 0 mm 2 mps 745 mmHg 87%
23:00 +16°C° 0 mm 2 mps 745 mmHg 88%
Show more

We Need Your Consent

Meteoprog and our Service Providers may store and access personal data such as cookies, device identifiers or other similar technologies on your device and process such data to personalise content and ads, as well as provide social media features and to analyse the traffic.

  • Store and/or access information on your device

    Cookies, device identifiers or other information can be stored or accessed on your device for the purposes indicated above.

  • Personalised ads and content, ad and content measurement, audience insights, and products development

    Ads and content can be personalised based on a profile. More data can be added to better personalise ads and content. Ad and content performance can be measured. Insights about the audience who saw the ads and content can be derived. Such data can be used to develop or improve user’s experience, systems and software.

By clicking ‘I Agree’ you will allow the use of indicated cookies, device identifiers, web beacons or other similar technologies. Your settings can be changed in the browser on your device.

For certain purposes, legitimate interests may be relied on, rather than consent. You can read more about this in our Privacy and Cookie Policy.